Location: ???????
(55.8860°N, 38.0932°E)
Time: 06:42:23
(UTC+00:00)

Cosmos 1743 Rocket - Pass Details

Date: 14 April 2024
Orbit: 601 x 629 km, 82.6° (Epoch: 22 May)

Event Time Altitude Azimuth Distance (km) Brightness Sun altitude
Rises 00:21:56 0° 346° (NNW) 2,885 7.4 -15.3°
Reaches altitude 10° 00:24:10 10° 345° (NNW) 1,972 6.5 -15.1°
Maximum altitude 00:28:31 75° 261° (W) 632 3.4 -14.7°
Enters shadow 00:32:48 10° 176° (S) 1,941 5.7 -14.2°
